Location: Chacón
(10.5789°N, 66.9317°W)
Time: 02:27:34
(UTC+00:00)

Daily predictions for brighter satellites

Satellite Brightness Start Highest point End
(mag) Time Altitude Azimuth Time Altitude Azimuth Time Altitude Azimuth
Hubble Space Telescope 0.6 00:00:32 10° WSW 00:04:30 82° NNW 00:06:11 33° NE
Resurs 01 Rocket 3.1 00:08:01 21° NE 00:08:01 21° NE 00:10:31 10° NNE
Cosmos 2233 Rocket 4.4 00:03:09 10° NNW 00:09:23 65° W 00:15:36 10° S
Sylda 5 4.1 00:11:43 10° WSW 00:17:10 20° S 00:17:41 20° S
Meteor 2-21 Rocket 4.3 00:13:03 10° S 00:19:15 81° E 00:25:26 10° N
Cosmos 1782 3.9 00:15:42 10° SSW 00:19:17 41° W 00:22:52 10° NNW
Okean O Rocket 3.2 00:24:28 22° NE 00:24:28 22° NE 00:26:33 10° NNE
Delta 7925 Rocket 3.0 00:18:22 10° WSW 00:23:32 78° SSE 00:24:01 69° E
Cosmos 1943 4.3 00:26:43 28° NE 00:26:43 28° NE 00:29:36 10° NE
Feng Yun 1-1 Rocket 4.3 00:30:17 56° ESE 00:30:53 59° ENE 00:36:39 10° N
Cosmos 1072 Rocket 4.4 00:32:33 10° N 00:38:32 62° E 00:38:32 62° E
IUS R/B (1) 4.4 00:34:48 10° NW 00:38:49 49° NE 00:42:16 36° E
SPOT 1/Viking Rocket 4.0 00:39:31 39° SSW 00:41:09 56° WSW 00:46:12 10° NNW
Cosmos 1943 Rocket 2.7 00:46:01 10° N 00:50:13 47° NNE 00:50:13 47° NNE
CZ-4B R/B 3.3 00:53:16 65° WSW 00:53:30 66° WSW 00:58:49 10° NNW
MOS 1-B 4.4 00:59:03 76° WNW 00:59:03 76° WNW 01:04:32 10° NNW
ATLAS 3B R/B 4.3 00:57:21 10° N 01:01:44 23° NE 01:01:44 23° NE
Palapa 6 Rocket 4.1 00:58:43 10° W 01:04:21 58° NW 01:04:21 58° NW
Cosmos 1464 Rocket 4.1 01:03:05 10° N 01:08:45 68° WNW 01:08:45 68° WNW
Delta 202 4.5 01:04:17 10° WSW 01:11:08 83° NNW 01:12:07 72° NE
Cosmos 2278 Rocket 3.2 01:06:05 10° NW 01:11:18 39° WSW 01:11:18 39° WSW
ATLAS 5 CENTAUR R/B 3.6 01:08:21 10° NW 01:14:22 40° WSW 01:15:21 38° SW
ATLAS 5 CENTAUR R/B 4.2 05:35:22 10° WNW 06:38:58 77° S 06:48:21 10° ESE
SL-16 R/B 3.9 07:01:53 35° NE 07:01:53 35° NE 07:06:31 10° N
Cosmos 2360 Rocket 3.9 07:16:21 10° NNE 07:21:12 29° ENE 07:23:19 23° ESE
Cosmos 2297 Rocket 2.5 07:48:12 63° E 07:48:12 63° E 07:53:24 10° NNE
Cosmos 962 Rocket 4.5 07:53:42 68° SSE 07:54:28 78° E 08:00:46 10° N
Cosmos 2333 Rocket 2.7 07:49:18 10° N 07:54:56 59° ENE 08:00:35 10° SSE
Lacrosse 5 rocket 3.7 07:52:43 10° N 07:55:31 20° NE 07:58:14 10° ESE
Cosmos 1777 Rocket 4.4 07:57:21 55° N 07:57:21 55° N 08:01:26 10° N
Cosmos 2322 Rocket 3.3 07:53:10 10° NNW 07:56:07 32° NNW 07:56:07 32° NNW
COSMOS 2455 2.7 08:07:37 66° WNW 08:07:37 66° WNW 08:13:34 10° NNE
Cosmos 2218 Rocket 4.4 08:07:26 22° SSE 08:11:36 63° E 08:17:52 10° NNE
Cosmos 332 Rocket 3.7 08:15:58 70° SSE 08:16:26 80° ESE 08:21:15 10° NNE
CZ-3 R/B 4.2 07:34:46 10° WNW 08:17:47 60° NNE 08:27:50 10° E
CZ-4C R/B 1.8 08:19:12 51° N 08:19:12 51° N 08:22:30 10° NNE
Palapa 6 Rocket 3.1 08:19:32 58° NE 08:19:32 58° NE 08:23:04 10° ESE
Okean 1 Rocket 3.2 08:17:28 10° N 08:21:00 57° NNW 08:21:00 57° NNW
Cosmos 1959 Rocket 4.5 08:20:45 23° S 08:24:47 80° E 08:30:55 10° N
CZ-2C R/B 3.7 08:21:21 10° NNW 08:23:39 23° NW 08:23:39 23° NW
Meteor 1-11 4.2 08:24:24 29° S 08:27:24 84° E 08:33:05 10° N
IRS-1D 4.1 08:22:39 10° N 08:27:19 40° WNW 08:27:19 40° WNW
ARIANE 5 R/B 4.1 07:57:12 10° W 08:28:59 50° SSW 08:35:17 10° SE
GENESIS II 4.2 08:30:21 59° NNW 08:30:21 59° NNW 08:33:29 10° NNE
Hubble Space Telescope 1.5 08:29:33 30° NNW 08:31:05 47° NNE 08:34:54 10° E
CSL-04 DEB 4.2 08:27:23 10° N 08:31:00 69° NW 08:31:00 69° NW
Ariane H10 3.4 08:33:24 15° SE 08:33:24 15° SE 08:34:00 10° ESE
Cosmos 1484 Rocket 3.0 08:29:14 10° NNE 08:32:57 64° E 08:34:13 38° SSE
Cosmos 1975 Rocket 3.7 08:40:24 35° WNW 08:40:24 35° WNW 08:43:49 10° NNW
OAO 1 4.4 08:37:02 28° WNW 08:39:57 69° SW 08:45:23 10° SE
SL-12 R/B(2) 4.0 08:37:19 31° SW 08:41:02 62° WNW 08:49:01 10° NNE
H-2A R/B 4.0 08:38:44 28° SW 08:41:28 32° SSW 08:53:55 10° SSE
Aureole 1 Rocket 3.5 08:39:41 20° SSE 08:41:52 42° ESE 08:44:53 10° NNE
USA 215 3.3 08:36:15 10° NNE 08:42:42 66° NW 08:46:20 28° SW
RESURS DK-1 2.4 08:39:25 10° NNW 08:43:20 51° WSW 08:43:59 46° SW
SL-16 R/B 4.2 08:46:58 15° WNW 08:46:58 15° WNW 08:48:39 10° NW
BREEZE-M DEB (TANK) 4.5 08:32:01 23° SW 08:44:34 69° WNW 08:49:39 10° NNE
Cosmos 2341 Rocket 4.4 08:43:05 31° SW 08:45:24 42° W 08:51:16 10° NNW
Sakura Rocket 4.4 08:42:57 25° SSW 08:45:56 41° SSE 08:50:31 10° E
Cosmos 990 Rocket 3.9 08:44:37 26° SSW 08:47:34 73° WNW 08:52:42 10° N
Nadezhda 3 Rocket 4.5 08:42:45 10° NNW 08:48:29 38° W 08:51:49 22° SW
Cosmos 1339 Rocket 4.5 08:42:38 10° N 08:48:59 71° W 08:55:21 10° S
Cosmos 2333 4.4 08:45:15 10° NNW 08:50:43 47° WSW 08:56:14 10° S
Cosmos 1821 Rocket 4.1 08:45:40 10° S 08:51:53 80° E 08:57:59 10° N
Cosmos 2366 rocket 4.2 08:48:02 22° SSW 08:51:55 48° W 08:58:00 10° NNW
Ariane H10-3 2.2 08:52:46 36° S 08:52:46 36° S 08:54:56 10° ESE
Cosmos 1939 Rocket 2.8 08:49:29 10° NNE 08:53:28 86° E 08:56:49 14° S
Cosmos 2219 Rocket 2.1 08:50:28 10° NNW 08:56:03 63° WSW 09:01:38 10° S
Cosmos 2219 3.4 08:52:06 10° S 08:57:46 71° ESE 09:03:25 10° NNE
NOSS 3-2 (A) 4.3 08:54:52 10° S 08:59:18 35° ESE 09:03:46 10° NE
Geosat 3.9 08:55:09 10° SSE 09:00:08 71° WSW 09:05:06 10° NNW
Cosmos 2263 Rocket 3.3 08:54:53 10° S 09:00:14 44° ESE 09:05:34 10° NNE
ASTEX 1 4.4 09:00:40 24° WSW 09:01:34 26° W 09:05:37 10° NW
BlueWalker 3 2.9 08:59:38 15° S 09:02:23 40° ESE 09:05:55 10° NE
ATLAS 2AS CENTAUR R/B 3.2 08:57:53 10° NNW 09:04:23 62° ENE 09:10:51 10° SE
Cosmos 2360 Rocket 3.4 09:00:52 10° WNW 09:04:42 20° W 09:04:42 20° W
COSMOS 2428 3.3 09:00:08 10° N 09:05:44 60° ENE 09:11:19 10° SSE
Chandra Rocket (1) 3.2 09:05:30 20° SW 09:06:27 21° SSW 09:11:23 10° SE
Cosmos 1536 Rocket 3.5 09:03:33 10° S 09:07:57 89° ENE 09:12:21 10° N
Cosmos 2227 Rocket 2.7 09:04:49 19° SW 09:08:18 39° WNW 09:13:33 10° N
Ariane H10-3 2.3 09:13:27 18° WSW 09:15:26 28° S 09:18:09 10° ESE
H-2A R/B 2.9 09:10:52 10° NNW 09:15:40 33° WNW 09:20:08 11° SW
Cosmos 292 Rocket 3.7 09:14:46 10° SSW 09:19:27 71° WNW 09:24:08 10° N
ARIANE 5 R/B 2.5 09:17:07 10° NNE 09:22:08 85° ESE 09:27:06 10° S
Cosmos 1455 Rocket 3.8 09:19:01 10° NNW 09:22:54 31° W 09:26:49 10° SSW
CENTAUR R/B 2.0 09:20:25 10° SW 09:25:03 58° WNW 09:30:23 10° NNE
H-2A R/B 2.9 09:24:27 10° N 09:27:21 35° WNW 09:30:18 10° SW
CZ-3 Stage 3 2.7 09:27:03 10° NNW 09:28:40 23° NE 09:31:24 10° E
SL-8 R/B 4.0 09:25:25 10° WNW 09:29:58 44° SW 09:34:30 10° SSE
Delta 128 4.3 09:24:35 11° SW 09:30:29 67° SSE 09:35:41 10° ENE
ASTRO E2 3.2 09:28:01 10° SW 09:31:19 42° SSE 09:34:37 10° ENE
Lacrosse 5 rocket 2.7 09:31:27 10° W 09:33:33 15° WSW 09:35:37 10° SSW
Cosmos 1606 2.4 09:32:54 10° N 09:36:26 80° W 09:39:58 10° S
ARIANE 5 R/B 4.1 09:30:43 10° WSW 09:37:05 19° SSW 09:39:47 10° SSE
ARIANE 5 R/B 4.2 09:14:12 10° W 09:39:29 42° SSW 09:43:52 10° SE
ARIANE 3 DEB 3.6 09:39:24 10° SW 09:40:50 15° S 09:42:17 10° SE
Cosmos 1727 Rocket 4.1 09:36:56 10° N 09:43:13 88° E 09:49:33 10° S
NOAA 12 4.1 09:38:48 10° N 09:43:59 66° WNW 09:49:13 10° SSW
JB-3 4.5 09:40:22 10° SSE 09:44:05 73° E 09:47:50 10° N
Centaur AC-72 4.2 09:33:54 10° WNW 10:06:51 89° SSW 10:13:38 10° ESE
